Showing default

GLOBALSTAR M095, 39077

Orbit data source: Space-Track

GLOBALSTAR M095, 39077 is a payload satellite owned by Globalstar (US) in LEO that was launched on Wed, 06 Feb 2013 UTC via a SOYUZ-2-1A launch vehicle from the Tyuratam Missile And Space Complex (TTMTR). Payload-class satellites include a variety of spacecraft equipped with specific instruments for various scientific and technological missions. These include communications satellites like Starlink; space stations such as the ISS; scientific satellites like the Hubble; Earth observation satellites from companies like Planet Labs, Umbra, and HawkEye 360; GPS; miniature CubeSats for education and research; and military/defense satellites.

Loading next visibility...
Identifier
39077, 2013-005F
Orbit
LEO
Country
Flag of UnknownUnknown / GLOB
Related business
Manufacturer
Thales Alenia
Mission
Operational Commercial Communications
Bus & Motor
PRISMA?, LS-400 AOCS?
Mass
715 kg wet, ~500 kg dry
Launch date (UTC)
2013-02-06 (13 years ago)
Launch vehicle
SOYUZ-2-1A
Launch site
Tyuratam Missile And Space Complex (TTMTR)
Object type
Payload
Rocket body
Debris
Shape & HBR
Trap Cyl + 2 Pan, 6.0 m
Radar Cross Section
20.931 m², Large (>1 m²)

Expand to show TLE details & history
Last TLE update: 19 hours ago

TLE from 19 hours ago
0 GLOBALSTAR M095
1 39077U 13005F   25348.80890868 -.00000099  00000-0  27626-4 0  9990
2 39077  52.0064 122.4390 0000601 130.4184 229.6735 12.62267285592588
Epoch: 2025-12-14T19:24Z
TLE epoch observation values (Epoch: 2025-12-14T19:24:49.709Z)
Latitude
-0.00006°
Longitude
107.51533°
Altitude
1,414.585 km
Speed
7.154 km/s
True Right ascension
08h 09m 45s
True Declination
0° 00' 00"
Sunlit
Object was in full shadow at epoch
Visualization orbit readout
Latitude
Unknown
Longitude
Unknown
Altitude
Unknown
Speed
Unknown
Apparent Right ascension
Unknown
Apparent Declination
Unknown
Sunlit
N/A
Visualization observer readout
Local Sidereal Time
13:22:44
Azimuth
Unknown
Elevation
Unknown
Doppler factor
Unknown
Orbital elements
Apogee altitude
1,414.46 km
Perigee altitude
1,413.523 km
Semi-major axis
7,792.128 km
Eccentricity
0.00006
Inclination
52.0064°
RAAN
122.439°
Arg. of periapsis
130.4184°
True anomaly
229.66825°
Mean anomaly
229.6735°
Eccentric anomaly
229.67087°
Mean motion
3.15543 °/min
Orbital period
114.09 mins
BSTAR
0.000027626
Loading maneuver chart data...
Computing Atmospheric mass density...
Loading historical data...
Loading historical data...
Loading historical data...
Loading historical data...
Loading historical data...
Loading historical data...
Loading historical data...

Documentation

Showing up to 5 results
|